map of HWO home
HWO - Airport
Location
City:  Hollywood, Florida, United States
Name:North Perry Airport
ICAO:KHWO
IATA:HWO
FAA LID:HWO

Details
Type:Airport (Airfield)
Use:Public/Civil
Latitude:2600'04"N (26.001222)
Longitude:8014'27"W (-80.240721)
Datum:WGS 1984
Elevation:8 ft (2 m)
Variation:6.69W (WMM2015 magnetic declination)
-0.10 annual change
Runways:4
Longest:3350 × 100 ft (1021 × 30.5 m), paved

Time
Time Zone:UTC-5 (DST-4)
Local Time:

Weather
METAR:KHWO 210553Z AUTO 07010KT 10SM -RA FEW026 BKN040 OVC050 25/23 A3004 RMK AO2 RAB31 SLP171 P0001 60004 T02500228 10278 20250 58007

Related Locations
Nearby:
Farthest:USL: 11599 mi / 18667 km
Useless Loop, WA, AU

Find:

   beyond  
but within

Other Information
Maps:
NOTAMs:
Links:
Sources:

  
flag of United States
flag of Florida
  

Airport Diagram

Airport diagram for HWO

Airport diagram PDF

Sectional Chart

Flight Planning
at skyvector.com

Satellite Image

Google Maps Satellite view

 

Copyright © 2004-2017 Karl L. Swartz. All rights reserved.
The Great Circle Mapper name and logo are trademarks of the Great Circle Mapper.
All other trademarks mentioned herein belong to their respective owners.
Please see credits for attibutions and further copyright information.

  Follow gcmap on Facebook Follow gcmap on Twitter Follow gcmap on Google+ GCmap on LinkedIn

hCard Microformat

Geo Microformat